QPF
0.00 0.00 0.00 0.00 0.00 0.00 0.00 0.00 0.00 0.00 0.00 0.00 0.00 0.00 0.00 0.00 0.00 0.00 0.00 0.00 0.00 0.00 0.00 0.00 0.00 0.00 0.00 0.00 0.00 0.00 0.00 0.00 0.00 0.00 0.00 0.00 0.00 0.00 0.00 0.00 0.00 0.01 0.02 0.02
0.00 0.00 0.00 0.00 0.00 0.00 0.00 0.00 0.00 0.00 0.00 0.00 0.00 0.00 0.00 0.00 0.00 0.00 0.00 0.00 0.00 0.00 0.00 0.00 0.00 0.00 0.00 0.00 0.00 0.00 0.00 0.00 0.00 0.00 0.00 0.00 0.00 0.00 0.00 0.00 0.00 0.01 0.02 0.01
0.00 0.00 0.00 0.00 0.00 0.00 0.00 0.00 0.00 0.00 0.00 0.00 0.00 0.00 0.00 0.00 0.00 0.00 0.00 0.00 0.00 0.00 0.00 0.00 0.00 0.00 0.00 0.00 0.00 0.00 0.00 0.00 0.00 0.00 0.00 0.00 0.00 0.00 0.00 0.00 0.00 0.00 0.01 0.02
0.00 0.00 0.00 0.00 0.00 0.00 0.00 0.00 0.00 0.00 0.00 0.00 0.00 0.00 0.00 0.00 0.00 0.00 0.00 0.00 0.00 0.00 0.00 0.00 0.00 0.00 0.00 0.00 0.00 0.00 0.00 0.00 0.00 0.00 0.00 0.00 0.00 0.00 0.00 0.00 0.00 0.00 0.00 0.01
0.00 0.00 0.00 0.00 0.00 0.00 0.00 0.00 0.00 0.00 0.00 0.00 0.00 0.00 0.00 0.00 0.00 0.00 0.00 0.00 0.00 0.00 0.00 0.00 0.00 0.00 0.00 0.00 0.00 0.00 0.00 0.00 0.00 0.00 0.00 0.00 0.00 0.00 0.00 0.00 0.00 0.00 0.00 0.00
0.00 0.00 0.00 0.00 0.00 0.00 0.00 0.00 0.00 0.00 0.00 0.00 0.00 0.00 0.00 0.00 0.00 0.00 0.00 0.00 0.00 0.00 0.00 0.00 0.00 0.00 0.00 0.00 0.00 0.00 0.00 0.00 0.00 0.00 0.00 0.00 0.00 0.00 0.00 0.00 0.00 0.00 0.00 0.00
0.00 0.00 0.00 0.00 0.00 0.00 0.00 0.00 0.00 0.00 0.00 0.00 0.00 0.00 0.00 0.00 0.00 0.00 0.00 0.00 0.00 0.00 0.00 0.00 0.00 0.00 0.00 0.00 0.00 0.00 0.00 0.00 0.00 0.00 0.00 0.00 0.00 0.00 0.00 0.00 0.00 0.00 0.00 0.00
0.00 0.00 0.00 0.00 0.00 0.00 0.00 0.00 0.00 0.00 0.00 0.00 0.00 0.00 0.00 0.00 0.00 0.00 0.00 0.00 0.00 0.00 0.00 0.00 0.00 0.00 0.00 0.00 0.00 0.00 0.00 0.00 0.00 0.00 0.00 0.00 0.00 0.00 0.00 0.00 0.00 0.00 0.00 0.00
0.00 0.00 0.00 0.00 0.00 0.00 0.00 0.00 0.00 0.00 0.00 0.00 0.00 0.00 0.00 0.00 0.00 0.00 0.00 0.00 0.00 0.00 0.00 0.00 0.00 0.00 0.00 0.00 0.00 0.00 0.00 0.00 0.00 0.00 0.00 0.00 0.00 0.00 0.00 0.00 0.00 0.00 0.00 0.00
0.00 0.00 0.00 0.00 0.00 0.00 0.00 0.00 0.00 0.00 0.00 0.00 0.00 0.00 0.00 0.00 0.00 0.00 0.00 0.00 0.00 0.00 0.00 0.00 0.00 0.00 0.00 0.00 0.00 0.00 0.00 0.00 0.00 0.00 0.00 0.00 0.00 0.00 0.00 0.00 0.00 0.00 0.00 0.00
0.00 0.00 0.00 0.00 0.00 0.00 0.00 0.00 0.00 0.00 0.00 0.00 0.00 0.00 0.00 0.00 0.00 0.00 0.00 0.00 0.00 0.00 0.00 0.00 0.00 0.00 0.00 0.00 0.00 0.00 0.00 0.00 0.00 0.00 0.00 0.00 0.00 0.00 0.00 0.00 0.00 0.00 0.00 0.00
0.00 0.00 0.00 0.00 0.00 0.00 0.00 0.00 0.00 0.00 0.00 0.00 0.00 0.00 0.00 0.00 0.00 0.00 0.00 0.00 0.00 0.00 0.00 0.00 0.00 0.00 0.00 0.00 0.00 0.00 0.00 0.00 0.00 0.00 0.00 0.00 0.00 0.00 0.00 0.00 0.00 0.00 0.00 0.00
0.00 0.00 0.00 0.00 0.00 0.00 0.00 0.00 0.00 0.00 0.00 0.00 0.00 0.00 0.00 0.00 0.00 0.00 0.00 0.00 0.00 0.00 0.00 0.00 0.00 0.00 0.00 0.00 0.00 0.00 0.00 0.00 0.00 0.00 0.00 0.00 0.00 0.00 0.00 0.00 0.00 0.00 0.00 0.00
0.00 0.00 0.00 0.00 0.00 0.00 0.00 0.00 0.00 0.00 0.00 0.00 0.00 0.00 0.00 0.00 0.00 0.00 0.00 0.00 0.00 0.00 0.00 0.00 0.00 0.00 0.00 0.00 0.00 0.00 0.00 0.00 0.00 0.00 0.00 0.00 0.00 0.00 0.00 0.00 0.00 0.00 0.00 0.00
0.00 0.00 0.00 0.00 0.00 0.00 0.00 0.00 0.00 0.00 0.00 0.00 0.00 0.00 0.00 0.00 0.00 0.00 0.00 0.00 0.00 0.00 0.00 0.00 0.00 0.00 0.00 0.00 0.00 0.00 0.00 0.00 0.00 0.00 0.00 0.00 0.00 0.00 0.00 0.00 0.00 0.00 0.00 0.00
0.00 0.00 0.00 0.00 0.00 0.00 0.00 0.00 0.00 0.00 0.00 0.00 0.00 0.00 0.00 0.00 0.00 0.00 0.00 0.00 0.00 0.00 0.00 0.00 0.00 0.00 0.00 0.00 0.00 0.00 0.00 0.00 0.00 0.00 0.00 0.00 0.00 0.00 0.00 0.00 0.00 0.00 0.00 0.00
0.00 0.00 0.00 0.00 0.00 0.00 0.00 0.00 0.00 0.00 0.00 0.00 0.00 0.00 0.00 0.00 0.00 0.00 0.00 0.00 0.00 0.00 0.00 0.00 0.00 0.00 0.00 0.00 0.00 0.00 0.00 0.00 0.00 0.00 0.00 0.00 0.00 0.00 0.00 0.00 0.00 0.00 0.00 0.00
0.00 0.00 0.00 0.00 0.00 0.00 0.00 0.00 0.00 0.00 0.00 0.00 0.00 0.00 0.00 0.00 0.00 0.00 0.00 0.00 0.00 0.00 0.00 0.00 0.00 0.00 0.00 0.00 0.00 0.00 0.00 0.00 0.00 0.00 0.00 0.00 0.00 0.00 0.00 0.00 0.00 0.00 0.00 0.00
0.00 0.00 0.00 0.00 0.00 0.00 0.00 0.00 0.00 0.00 0.00 0.00 0.00 0.00 0.00 0.00 0.00 0.00 0.00 0.00 0.00 0.00 0.00 0.00 0.00 0.00 0.00 0.00 0.00 0.00 0.00 0.00 0.00 0.00 0.00 0.00 0.00 0.00 0.00 0.00 0.00 0.00 0.00 0.00
0.01 0.00 0.00 0.00 0.00 0.00 0.00 0.00 0.00 0.00 0.00 0.00 0.00 0.00 0.00 0.00 0.00 0.00 0.00 0.00 0.00 0.00 0.00 0.00 0.00 0.00 0.00 0.00 0.00 0.00 0.00 0.00 0.00 0.00 0.00 0.00 0.00 0.00 0.00 0.00 0.00 0.00 0.00 0.00
0.01 0.00 0.00 0.00 0.00 0.00 0.00 0.00 0.00 0.00 0.00 0.00 0.00 0.00 0.00 0.00 0.00 0.00 0.00 0.00 0.00 0.00 0.00 0.00 0.00 0.00 0.00 0.00 0.00 0.00 0.00 0.00 0.00 0.00 0.00 0.00 0.00 0.00 0.00 0.00 0.00 0.00 0.00 0.00
0.00 0.00 0.00 0.00 0.00 0.00 0.00 0.00 0.00 0.00 0.00 0.00 0.00 0.00 0.00 0.00 0.00 0.00 0.00 0.00 0.00 0.00 0.00 0.00 0.00 0.00 0.00 0.00 0.00 0.00 0.00 0.00 0.00 0.00 0.00 0.00 0.00 0.00 0.00 0.00 0.00 0.00 0.00 0.00
0.00 0.00 0.00 0.01 0.01 0.01 0.01 0.01 0.01 0.01 0.01 0.00 0.00 0.00 0.00 0.00 0.00 0.00 0.00 0.00 0.00 0.00 0.00 0.00 0.00 0.00 0.00 0.00 0.00 0.00 0.00 0.00 0.00 0.00 0.00 0.00 0.00 0.00 0.00 0.00 0.00 0.00 0.00 0.00
0.01 0.00 0.00 0.01 0.01 0.01 0.02 0.02 0.02 0.02 0.02 0.02 0.01 0.01 0.00 0.00 0.00 0.00 0.00 0.00 0.00 0.00 0.00 0.00 0.00 0.00 0.00 0.00 0.00 0.00 0.00 0.00 0.00 0.00 0.00 0.00 0.00 0.00 0.00 0.00 0.00 0.00 0.00 0.00
0.01 0.01 0.01 0.01 0.01 0.01 0.01 0.01 0.01 0.02 0.02 0.02 0.03 0.02 0.01 0.01 0.01 0.01 0.01 0.00 0.00 0.00 0.00 0.00 0.00 0.00 0.00 0.00 0.00 0.00 0.00 0.00 0.00 0.00 0.00 0.00 0.00 0.00 0.00 0.00 0.00 0.00 0.00 0.00
0.01 0.01 0.01 0.01 0.01 0.01 0.01 0.01 0.01 0.01 0.01 0.02 0.02 0.02 0.01 0.01 0.01 0.00 0.00 0.00 0.00 0.00 0.00 0.00 0.00 0.00 0.00 0.00 0.00 0.00 0.00 0.00 0.00 0.00 0.00 0.00 0.00 0.00 0.00 0.00 0.00 0.00 0.00 0.00
0.01 0.01 0.01 0.01 0.01 0.01 0.01 0.01 0.01 0.01 0.01 0.01 0.01 0.01 0.01 0.01 0.00 0.00 0.00 0.00 0.00 0.00 0.00 0.00 0.00 0.00 0.00 0.00 0.00 0.00 0.00 0.00 0.00 0.00 0.00 0.00 0.00 0.00 0.00 0.00 0.00 0.00 0.00 0.00
MSLP
1014.15 1014.62 1015.10 1015.56 1015.93 1016.15 1016.16 1015.95 1015.50 1014.85 1014.04 1013.17 1012.33 1011.59 1011.03 1010.67 1010.54 1010.61 1010.83 1011.15 1011.52 1011.88 1012.21 1012.49 1012.73 1012.95 1013.15 1013.37 1013.60 1013.84 1014.08 1014.30 1014.49 1014.63 1014.72 1014.76 1014.77 1014.75 1014.73 1014.72 1014.72 1014.73 1014.74 1014.74
1014.37 1014.69 1014.96 1015.15 1015.24 1015.18 1014.95 1014.56 1014.01 1013.35 1012.61 1011.87 1011.19 1010.62 1010.21 1009.97 1009.91 1010.00 1010.20 1010.48 1010.79 1011.12 1011.43 1011.73 1012.02 1012.30 1012.60 1012.91 1013.22 1013.54 1013.84 1014.11 1014.33 1014.50 1014.61 1014.67 1014.70 1014.70 1014.70 1014.71 1014.71 1014.72 1014.72 1014.71
1014.61 1014.76 1014.81 1014.74 1014.55 1014.22 1013.77 1013.22 1012.58 1011.90 1011.22 1010.59 1010.04 1009.63 1009.34 1009.21 1009.20 1009.31 1009.50 1009.75 1010.03 1010.33 1010.64 1010.95 1011.28 1011.64 1012.00 1012.39 1012.78 1013.16 1013.52 1013.83 1014.09 1014.29 1014.43 1014.53 1014.59 1014.63 1014.65 1014.67 1014.68 1014.68 1014.66 1014.62
1014.82 1014.79 1014.62 1014.31 1013.87 1013.32 1012.68 1011.98 1011.27 1010.57 1009.94 1009.39 1008.96 1008.65 1008.48 1008.42 1008.47 1008.59 1008.78 1009.01 1009.27 1009.56 1009.87 1010.21 1010.58 1010.97 1011.40 1011.84 1012.28 1012.71 1013.10 1013.45 1013.74 1013.97 1014.15 1014.29 1014.39 1014.46 1014.52 1014.55 1014.57 1014.55 1014.50 1014.42
1014.93 1014.71 1014.34 1013.83 1013.19 1012.46 1011.67 1010.88 1010.11 1009.41 1008.81 1008.33 1007.98 1007.77 1007.67 1007.67 1007.76 1007.90 1008.09 1008.32 1008.58 1008.86 1009.18 1009.54 1009.94 1010.37 1010.82 1011.29 1011.76 1012.20 1012.61 1012.98 1013.29 1013.55 1013.76 1013.94 1014.08 1014.20 1014.28 1014.33 1014.35 1014.31 1014.23 1014.10
1014.84 1014.45 1013.92 1013.25 1012.47 1011.63 1010.76 1009.91 1009.12 1008.43 1007.87 1007.44 1007.16 1007.00 1006.96 1007.00 1007.12 1007.28 1007.49 1007.72 1007.98 1008.28 1008.61 1008.99 1009.40 1009.84 1010.31 1010.78 1011.24 1011.68 1012.09 1012.45 1012.77 1013.06 1013.30 1013.51 1013.69 1013.85 1013.96 1014.02 1014.03 1013.98 1013.86 1013.69
1014.49 1013.97 1013.32 1012.56 1011.70 1010.81 1009.91 1009.06 1008.29 1007.63 1007.10 1006.72 1006.48 1006.37 1006.36 1006.44 1006.58 1006.76 1006.98 1007.23 1007.51 1007.82 1008.17 1008.56 1008.97 1009.42 1009.87 1010.33 1010.77 1011.19 1011.57 1011.92 1012.25 1012.54 1012.81 1013.05 1013.27 1013.45 1013.59 1013.67 1013.68 1013.61 1013.46 1013.24
1013.87 1013.26 1012.54 1011.74 1010.88 1009.99 1009.12 1008.31 1007.58 1006.97 1006.49 1006.15 1005.95 1005.86 1005.88 1005.97 1006.12 1006.33 1006.56 1006.84 1007.14 1007.47 1007.84 1008.24 1008.65 1009.08 1009.52 1009.95 1010.36 1010.74 1011.10 1011.44 1011.75 1012.06 1012.35 1012.62 1012.87 1013.09 1013.25 1013.35 1013.36 1013.28 1013.11 1012.86
1013.04 1012.38 1011.64 1010.85 1010.03 1009.19 1008.39 1007.64 1006.98 1006.42 1005.99 1005.68 1005.50 1005.43 1005.45 1005.56 1005.73 1005.95 1006.21 1006.50 1006.83 1007.19 1007.58 1007.98 1008.40 1008.82 1009.23 1009.63 1010.01 1010.36 1010.70 1011.02 1011.34 1011.65 1011.97 1012.27 1012.56 1012.81 1013.00 1013.12 1013.14 1013.06 1012.88 1012.63
1012.09 1011.42 1010.71 1009.96 1009.20 1008.44 1007.71 1007.04 1006.44 1005.93 1005.53 1005.25 1005.08 1005.01 1005.04 1005.15 1005.33 1005.57 1005.85 1006.18 1006.54 1006.93 1007.33 1007.75 1008.17 1008.58 1008.98 1009.35 1009.71 1010.04 1010.37 1010.69 1011.02 1011.36 1011.70 1012.04 1012.37 1012.65 1012.88 1013.03 1013.07 1013.01 1012.85 1012.60
1011.18 1010.52 1009.85 1009.16 1008.47 1007.77 1007.11 1006.49 1005.93 1005.46 1005.07 1004.79 1004.62 1004.55 1004.57 1004.68 1004.88 1005.13 1005.45 1005.81 1006.20 1006.62 1007.06 1007.49 1007.92 1008.33 1008.72 1009.09 1009.44 1009.78 1010.11 1010.45 1010.81 1011.17 1011.56 1011.94 1012.31 1012.64 1012.91 1013.09 1013.18 1013.15 1013.02 1012.80
1010.43 1009.81 1009.18 1008.53 1007.88 1007.23 1006.60 1006.00 1005.45 1004.97 1004.57 1004.27 1004.08 1003.99 1004.01 1004.12 1004.33 1004.61 1004.96 1005.36 1005.79 1006.25 1006.72 1007.17 1007.62 1008.05 1008.45 1008.83 1009.19 1009.55 1009.91 1010.29 1010.68 1011.10 1011.53 1011.96 1012.38 1012.76 1013.07 1013.30 1013.43 1013.45 1013.36 1013.18
1009.93 1009.35 1008.75 1008.12 1007.48 1006.83 1006.19 1005.56 1004.98 1004.45 1004.01 1003.67 1003.45 1003.34 1003.35 1003.47 1003.69 1004.01 1004.39 1004.84 1005.32 1005.82 1006.32 1006.81 1007.28 1007.73 1008.16 1008.57 1008.97 1009.36 1009.77 1010.20 1010.64 1011.11 1011.60 1012.08 1012.54 1012.96 1013.32 1013.60 1013.77 1013.84 1013.81 1013.70
1009.71 1009.16 1008.57 1007.94 1007.28 1006.58 1005.88 1005.19 1004.53 1003.94 1003.43 1003.03 1002.76 1002.63 1002.63 1002.76 1003.01 1003.36 1003.80 1004.29 1004.81 1005.36 1005.90 1006.43 1006.94 1007.43 1007.89 1008.34 1008.79 1009.23 1009.70 1010.18 1010.68 1011.21 1011.74 1012.27 1012.77 1013.23 1013.63 1013.94 1014.16 1014.28 1014.30 1014.25
1009.74 1009.21 1008.62 1007.96 1007.24 1006.47 1005.68 1004.89 1004.14 1003.46 1002.87 1002.41 1002.10 1001.94 1001.94 1002.09 1002.37 1002.76 1003.24 1003.77 1004.35 1004.94 1005.52 1006.09 1006.64 1007.17 1007.68 1008.17 1008.67 1009.18 1009.70 1010.24 1010.80 1011.37 1011.95 1012.51 1013.04 1013.53 1013.94 1014.28 1014.53 1014.69 1014.76 1014.76
1009.94 1009.42 1008.81 1008.11 1007.32 1006.47 1005.58 1004.69 1003.84 1003.07 1002.41 1001.89 1001.54 1001.37 1001.37 1001.54 1001.85 1002.28 1002.80 1003.38 1004.00 1004.63 1005.25 1005.85 1006.44 1007.00 1007.56 1008.10 1008.65 1009.21 1009.79 1010.38 1010.99 1011.60 1012.21 1012.79 1013.34 1013.83 1014.25 1014.59 1014.85 1015.03 1015.14 1015.18
1010.21 1009.71 1009.08 1008.34 1007.49 1006.56 1005.59 1004.61 1003.68 1002.83 1002.11 1001.55 1001.18 1001.00 1001.01 1001.20 1001.53 1002.00 1002.55 1003.17 1003.81 1004.47 1005.12 1005.75 1006.36 1006.96 1007.54 1008.13 1008.73 1009.34 1009.96 1010.60 1011.24 1011.88 1012.50 1013.09 1013.63 1014.11 1014.52 1014.84 1015.10 1015.29 1015.41 1015.48
1010.47 1009.98 1009.35 1008.59 1007.70 1006.72 1005.69 1004.66 1003.67 1002.78 1002.03 1001.45 1001.07 1000.89 1000.92 1001.12 1001.47 1001.95 1002.52 1003.16 1003.81 1004.48 1005.14 1005.78 1006.41 1007.02 1007.64 1008.25 1008.88 1009.53 1010.19 1010.85 1011.52 1012.17 1012.80 1013.38 1013.90 1014.35 1014.73 1015.04 1015.28 1015.45 1015.57 1015.66
1010.65 1010.19 1009.57 1008.80 1007.91 1006.92 1005.87 1004.83 1003.83 1002.94 1002.18 1001.61 1001.23 1001.06 1001.09 1001.30 1001.66 1002.15 1002.71 1003.33 1003.98 1004.64 1005.29 1005.92 1006.55 1007.17 1007.79 1008.43 1009.08 1009.74 1010.42 1011.10 1011.78 1012.43 1013.04 1013.60 1014.10 1014.53 1014.88 1015.16 1015.37 1015.53 1015.64 1015.72
1010.75 1010.31 1009.71 1008.97 1008.10 1007.13 1006.11 1005.09 1004.12 1003.26 1002.53 1001.97 1001.62 1001.46 1001.49 1001.70 1002.04 1002.51 1003.05 1003.64 1004.26 1004.89 1005.51 1006.12 1006.73 1007.34 1007.96 1008.60 1009.25 1009.92 1010.60 1011.29 1011.96 1012.60 1013.20 1013.74 1014.21 1014.61 1014.93 1015.19 1015.38 1015.52 1015.63 1015.71
1010.75 1010.33 1009.77 1009.07 1008.24 1007.33 1006.37 1005.41 1004.49 1003.68 1002.99 1002.48 1002.14 1001.99 1002.02 1002.21 1002.53 1002.96 1003.45 1004.00 1004.57 1005.15 1005.73 1006.32 1006.90 1007.49 1008.09 1008.71 1009.36 1010.02 1010.69 1011.36 1012.02 1012.65 1013.23 1013.75 1014.20 1014.58 1014.89 1015.13 1015.32 1015.46 1015.56 1015.64
1010.65 1010.26 1009.74 1009.08 1008.32 1007.47 1006.59 1005.70 1004.86 1004.11 1003.48 1003.00 1002.69 1002.55 1002.57 1002.73 1003.02 1003.39 1003.84 1004.33 1004.85 1005.38 1005.92 1006.46 1007.01 1007.57 1008.15 1008.75 1009.38 1010.02 1010.67 1011.32 1011.95 1012.56 1013.12 1013.62 1014.06 1014.44 1014.74 1014.99 1015.19 1015.34 1015.45 1015.54
1010.47 1010.09 1009.59 1008.99 1008.29 1007.52 1006.71 1005.91 1005.15 1004.47 1003.90 1003.46 1003.17 1003.04 1003.04 1003.17 1003.42 1003.75 1004.14 1004.58 1005.05 1005.53 1006.03 1006.53 1007.05 1007.59 1008.14 1008.72 1009.31 1009.92 1010.55 1011.16 1011.77 1012.35 1012.89 1013.38 1013.81 1014.19 1014.51 1014.78 1015.00 1015.17 1015.31 1015.42
1010.16 1009.79 1009.32 1008.75 1008.11 1007.41 1006.69 1005.97 1005.29 1004.68 1004.16 1003.77 1003.50 1003.37 1003.36 1003.48 1003.68 1003.97 1004.32 1004.72 1005.15 1005.60 1006.06 1006.55 1007.04 1007.55 1008.08 1008.63 1009.20 1009.78 1010.36 1010.95 1011.52 1012.07 1012.58 1013.06 1013.50 1013.88 1014.23 1014.52 1014.77 1014.99 1015.16 1015.30
1009.70 1009.33 1008.88 1008.36 1007.77 1007.13 1006.48 1005.84 1005.24 1004.69 1004.24 1003.88 1003.65 1003.52 1003.52 1003.61 1003.80 1004.06 1004.38 1004.76 1005.16 1005.60 1006.05 1006.52 1007.00 1007.50 1008.02 1008.54 1009.08 1009.63 1010.18 1010.72 1011.25 1011.77 1012.26 1012.72 1013.16 1013.55 1013.92 1014.24 1014.53 1014.78 1014.99 1015.16
1009.07 1008.71 1008.28 1007.78 1007.24 1006.67 1006.09 1005.52 1004.99 1004.52 1004.12 1003.81 1003.61 1003.51 1003.51 1003.60 1003.78 1004.03 1004.35 1004.71 1005.12 1005.55 1006.00 1006.48 1006.96 1007.46 1007.97 1008.48 1009.00 1009.52 1010.03 1010.53 1011.03 1011.51 1011.97 1012.41 1012.84 1013.24 1013.61 1013.96 1014.28 1014.57 1014.81 1015.00
1008.26 1007.90 1007.50 1007.04 1006.56 1006.05 1005.54 1005.05 1004.59 1004.19 1003.85 1003.60 1003.43 1003.36 1003.38 1003.48 1003.67 1003.93 1004.25 1004.62 1005.03 1005.48 1005.95 1006.44 1006.94 1007.44 1007.95 1008.46 1008.96 1009.45 1009.93 1010.40 1010.86 1011.31 1011.74 1012.16 1012.57 1012.96 1013.34 1013.70 1014.03 1014.33 1014.59 1014.79
Thickness
5702 5707 5708 5708 5707 5699 5694 5692 5685 5695 5698 5717 5727 5731 5734 5735 5733 5731 5729 5727 5725 5721 5717 5713 5710 5706 5703 5699 5696 5692 5687 5683 5680 5677 5674 5670 5668 5665 5662 5660 5658 5655 5653 5652
5701 5707 5704 5703 5707 5704 5701 5701 5698 5702 5708 5729 5733 5733 5733 5734 5733 5731 5730 5729 5727 5724 5719 5715 5712 5708 5704 5700 5696 5692 5687 5684 5681 5677 5674 5671 5668 5665 5662 5660 5658 5655 5653 5652
5685 5694 5700 5695 5710 5710 5709 5711 5709 5706 5721 5734 5733 5733 5735 5736 5734 5734 5734 5732 5729 5726 5722 5718 5714 5710 5705 5702 5697 5692 5688 5684 5681 5677 5674 5671 5668 5665 5662 5659 5657 5655 5653 5651
5677 5687 5682 5703 5724 5722 5717 5721 5721 5725 5732 5735 5737 5740 5742 5741 5738 5736 5736 5734 5731 5728 5724 5720 5716 5712 5707 5702 5697 5692 5688 5684 5681 5677 5674 5671 5667 5664 5662 5659 5656 5654 5653 5651
5667 5672 5680 5705 5722 5721 5716 5720 5732 5730 5735 5737 5737 5737 5738 5744 5743 5742 5740 5737 5734 5731 5726 5721 5716 5712 5706 5700 5696 5691 5688 5685 5682 5678 5674 5670 5667 5664 5661 5658 5656 5654 5652 5651
5663 5672 5674 5702 5727 5730 5723 5716 5738 5736 5735 5733 5730 5719 5731 5746 5745 5742 5740 5737 5733 5729 5724 5719 5715 5710 5704 5699 5694 5691 5688 5685 5682 5678 5674 5670 5667 5664 5661 5658 5656 5654 5652 5650
5662 5665 5679 5712 5724 5724 5704 5712 5740 5739 5737 5731 5730 5736 5743 5746 5744 5741 5738 5735 5731 5726 5721 5717 5713 5708 5702 5697 5694 5692 5689 5685 5681 5677 5674 5670 5667 5663 5660 5658 5655 5653 5651 5650
5658 5661 5678 5720 5718 5711 5717 5733 5737 5738 5738 5734 5737 5740 5740 5740 5739 5736 5732 5729 5725 5721 5716 5713 5710 5705 5700 5695 5694 5691 5687 5683 5679 5676 5673 5670 5665 5662 5659 5656 5654 5651 5649 5648
5677 5689 5711 5717 5719 5725 5727 5727 5733 5734 5737 5736 5734 5734 5735 5734 5732 5730 5728 5724 5720 5716 5711 5707 5704 5702 5697 5695 5692 5687 5683 5679 5676 5673 5669 5667 5663 5660 5657 5654 5651 5649 5647 5645
5678 5694 5707 5712 5717 5722 5725 5726 5732 5733 5734 5733 5731 5732 5730 5728 5725 5724 5721 5718 5715 5710 5706 5702 5699 5697 5695 5692 5688 5683 5679 5675 5671 5668 5665 5662 5660 5657 5654 5651 5648 5646 5644 5642
5676 5690 5700 5713 5716 5720 5724 5726 5728 5730 5731 5730 5729 5727 5726 5723 5721 5719 5716 5712 5709 5705 5701 5698 5694 5691 5689 5686 5683 5678 5674 5670 5667 5664 5660 5657 5655 5652 5650 5648 5645 5643 5641 5638
5675 5691 5689 5700 5712 5716 5716 5719 5722 5723 5725 5727 5726 5725 5723 5720 5718 5714 5710 5706 5702 5698 5695 5692 5689 5686 5683 5680 5677 5673 5668 5664 5661 5657 5654 5651 5648 5646 5645 5643 5642 5640 5638 5635
5681 5689 5689 5696 5704 5708 5709 5713 5716 5717 5719 5721 5722 5721 5718 5714 5711 5708 5704 5700 5697 5693 5689 5685 5682 5679 5677 5674 5671 5667 5663 5659 5655 5651 5648 5645 5642 5639 5636 5635 5634 5633 5631 5629
5672 5673 5676 5685 5690 5697 5700 5705 5709 5711 5714 5715 5715 5713 5711 5707 5703 5701 5698 5695 5692 5687 5682 5678 5675 5671 5669 5667 5664 5660 5656 5653 5649 5645 5641 5638 5635 5632 5629 5626 5623 5621 5621 5620
5660 5660 5664 5673 5680 5685 5690 5693 5695 5699 5702 5704 5704 5704 5702 5699 5697 5694 5691 5686 5682 5677 5673 5670 5667 5663 5661 5659 5656 5652 5648 5643 5640 5636 5633 5630 5627 5624 5620 5617 5614 5610 5609 5608
5645 5650 5655 5659 5666 5673 5677 5680 5683 5688 5691 5693 5693 5693 5693 5691 5687 5682 5679 5676 5672 5668 5665 5662 5658 5655 5653 5650 5646 5642 5639 5638 5633 5627 5624 5620 5617 5614 5610 5607 5603 5600 5598 5596
5627 5633 5639 5644 5650 5658 5663 5669 5674 5678 5681 5682 5683 5682 5679 5675 5671 5667 5665 5663 5662 5658 5655 5652 5648 5645 5643 5640 5636 5632 5628 5626 5624 5617 5613 5609 5606 5602 5599 5595 5592 5589 5586 5585
5611 5617 5622 5628 5635 5643 5651 5657 5662 5665 5668 5671 5670 5668 5666 5664 5661 5657 5652 5649 5646 5642 5640 5639 5637 5634 5631 5628 5624 5620 5616 5613 5609 5605 5601 5597 5594 5590 5587 5583 5580 5577 5574 5572
5598 5604 5610 5616 5622 5629 5636 5642 5648 5652 5655 5656 5656 5655 5654 5652 5648 5644 5640 5637 5634 5630 5626 5626 5626 5621 5618 5616 5613 5608 5604 5600 5596 5592 5588 5586 5581 5577 5574 5571 5568 5565 5562 5560
5583 5589 5595 5601 5608 5614 5620 5627 5632 5636 5639 5641 5640 5639 5636 5634 5632 5629 5626 5623 5622 5620 5616 5614 5611 5607 5605 5603 5600 5595 5592 5588 5583 5579 5575 5571 5568 5564 5561 5558 5555 5552 5549 5546
5566 5571 5578 5584 5591 5597 5603 5608 5614 5618 5621 5624 5625 5624 5621 5618 5616 5614 5612 5607 5604 5603 5602 5602 5596 5593 5591 5589 5586 5581 5578 5574 5570 5565 5562 5558 5554 5551 5548 5545 5542 5539 5536 5533
5547 5552 5558 5565 5572 5578 5584 5590 5595 5600 5602 5604 5606 5605 5603 5600 5598 5597 5597 5596 5592 5590 5588 5585 5582 5581 5578 5575 5570 5567 5563 5560 5556 5552 5548 5545 5542 5538 5535 5532 5529 5526 5523 5520
5530 5535 5541 5547 5552 5558 5565 5571 5576 5580 5583 5585 5586 5586 5586 5585 5584 5583 5579 5577 5577 5577 5573 5570 5570 5569 5566 5560 5556 5553 5549 5546 5542 5539 5536 5532 5529 5526 5523 5520 5516 5513 5510 5507
5516 5521 5527 5532 5536 5541 5546 5551 5556 5559 5563 5566 5567 5568 5568 5567 5565 5565 5566 5565 5565 5563 5558 5557 5557 5555 5552 5545 5542 5538 5535 5532 5529 5526 5523 5519 5516 5513 5510 5507 5503 5500 5497 5495
5503 5508 5512 5517 5521 5525 5528 5533 5537 5541 5544 5546 5548 5550 5551 5552 5552 5550 5550 5549 5550 5547 5544 5544 5544 5541 5535 5531 5528 5525 5522 5519 5516 5513 5510 5507 5504 5500 5497 5494 5491 5488 5485 5482
5491 5495 5500 5503 5507 5510 5513 5516 5520 5523 5526 5528 5530 5531 5533 5534 5535 5535 5534 5534 5533 5532 5529 5528 5527 5525 5520 5518 5515 5512 5510 5507 5504 5501 5498 5495 5492 5489 5485 5482 5479 5476 5473 5470
5481 5484 5487 5491 5495 5498 5501 5503 5506 5509 5512 5514 5515 5516 5517 5518 5518 5518 5518 5518 5517 5516 5514 5512 5511 5509 5507 5505 5502 5500 5497 5494 5492 5489 5486 5483 5480 5477 5474 5471 5467 5464 5461 5458